Weather Roundup
Issued by NWS Chicago, IL

Home | Current Version | Previous Version | Graphics & Text | Print | Product List | Glossary On
Versions: 1 2 3 4 5 6 7 8 9 10 11 12 13 14 15 16 17 18 19 20 21 22 23 24 25 26 27 28 29 30 31 32 33 34 35 36 37 38 39 40 41 42 43 44 45 46 47 48 49 50
000
NZUS59 KLOT 282204
HRRLOT

CHICAGO AREA WEATHER ROUNDUP
NATIONAL WEATHER SERVICE CHICAGO/ROMEOVILLE IL
500 PM CDT SAT MAY 28 2016

NOTE: "FAIR" INDICATES FEW OR NO CLOUDS BELOW 12,000 FEET WITH NO
SIGNIFICANT WEATHER AND/OR OBSTRUCTIONS TO VISIBILITY.

* THESE STATIONS ARE NOT UNDER NWS QUALITY CONTROL. THEY ALSO MAY NOT
  REPORT WEATHER SUCH AS PRECIPITATION OR FOG.

ILZ005-006-012>014-019>023-282300-
NORTHEAST ILLINOIS

CITY           SKY/WX    TMP DP  RH WIND       PRES   REMARKS
OHARE          MOSUNNY   80  66  62 S15G26    29.88F HX  82
MIDWAY         MOSUNNY   83  65  54 S21       29.89F HX  85
AURORA         MOSUNNY   84  62  47 S20G26    29.87F HX  85
LANSING*       PTSUNNY   81  63  54 S17G23    29.92S HX  82
WAUKEGAN       MOSUNNY   80  65  59 S20       29.87S HX  82
DUPAGE AIRPORT SUNNY     83  64  52 S18G26    29.87F HX  84
WHEELING       MOSUNNY   82  63  52 S21       29.88F HX  83
MORRIS*        MOSUNNY   84  66  54 S21G26    29.86F HX  86
$$

WIZ051-052-058>065-066-070>072-282300-
SOUTHEAST WISCONSIN

CITY           SKY/WX    TMP DP  RH WIND       PRES   REMARKS
MILWAUKEE      MOSUNNY   81  64  56 S20G28    29.86S HX  82
KENOSHA*       MOSUNNY   81  64  56 S14G23    29.87S HX  82
RACINE*        MOSUNNY   74  60  61 S15       29.89S
BURLINGTON     MOSUNNY   82  60  46 S13G21    29.86S HX  82
WAUKESHA       MOSUNNY   79  63  57 S16G24    29.86F HX  80
$$

INZ001>003-010>013-019-020-282300-
NORTHWEST INDIANA

CITY           SKY/WX    TMP DP  RH WIND       PRES   REMARKS
GARY*          MOSUNNY   82  72  69 S9        29.92F HX  87
MICHIGAN CITY* NOT AVBL
RENSSELAER*    NOT AVBL
VALPARAISO     MOSUNNY   83  63  50 S20       29.94F HX  84
$$

LMZ740>746-282300-
SOUTHERN LAKE MICHIGAN

STATION/POSITION TIME  SKY/WX   TEMP WIND        PRES    VSBY
                                AIR  DIR/SP/G
                 (UTC)          (F)  (DEG/KT/KT) (MB)    (MI)
HARRISON CRIB    2100            76  190/ 22/ 23   N/A
BURNHAM HARBOR   2200            80  200/ 17/ 18   N/A
CALUMET HARBOR   2100            80  200/ 15/ 23 1012.2F
BURNS HARBOR     2100            78  190/ 20     1013.9S
MICHIGAN CITY    2100            78  180/ 15/ 19   N/A
$$

ABBREVIATIONS USED IN REMARKS
   TC - TEMPERATURE IN CELSIUS
  WCI - WIND CHILL INDEX
   HX - HEAT INDEX
  VSB - VISIBILITY
$$



USA.gov is the U.S. government's official web portal to all federal, state and local government web resources and services.